Starlink 5935

operational
NORAD ID: 56453 Int'l Des: 2023-064 Owner: SPXS Country: US Constellation: starlink
LEOCIRCULAR

关于 Starlink 5935

正在加载描述...

实时位置

正在加载3D地球...

即将过境

高度历史

Altitude vs Time

uPlot chart will show altitude changes over time

两行轨道根数

1 56453U 23064F 25257.18009159 -.00000168 00000-0 -63075-5 0 9995
2 56453 69.9995 229.6171 0003499 269.4477 90.6281 14.98330055128807
Epoch: Sep 14, 2025 • Age: 29 hours

当前状态

高度 585.1 km
速度 7.57 km/s
星下点 65.24°N, 141.24°E
发射日期 May 10, 2023
运行时间 2.3 years
类型 internet

技术详情

分类 Payload
质量 305.00 kg
干质量 290.00 kg
总质量 305.00 kg
长度 0.20 m
直径 2.80 m
跨度 9.00 m
形状 Box + pan
制造商 SPXS
平台类型 Starlink
阶段状态 In Orbit
所有者/国家 SPXS/US

大型星座

Loading constellations...